Faro, Portugal

4:11 AM WET on November 21, 2019 (GMT +0000)
Faro

Weather History for LPFR - September, 2019

Change the Weather History Date:

Thursday, September 12, 2019

  Actual Average Record
Temperature  
Mean Temperature 74 °F -  
Max Temperature 80 °F 75 °F 90 °F (2012)
Min Temperature 68 °F 61 °F 57 °F (2001)
Cooling Degree Days 10    
Growing Degree Days 24 (Base 50)    
Moisture  
Dew Point 51 °F    
Average Humidity 42    
Maximum Humidity 73    
Minimum Humidity 20    
Precipitation  
Precipitation 0.00 in 0.05 in - ()
Sea Level Pressure  
Sea Level Pressure 30.12 in    
Wind  
Wind Speed 10 mph ()    
Max Wind Speed 18 mph    
Max Gust Speed 25 mph    
Visibility 9.1 miles    
Events      
Averages and records for this station are not official NWS values.
T = Trace of Precipitation, MM = Missing Value Source: Averaged Metar Reports

Daily Weather History Graph

Daily Weather History Graph

Search for Another Location

Airport or City:

Astronomy

Sep. 12, 2019 Rise Set
Actual Time 7:11 AM WEST 7:44 PM WEST
Civil Twilight 6:45 AM WEST 8:10 PM WEST
Nautical Twilight 6:14 AM WEST 8:41 PM WEST
Astronomical Twilight 5:42 AM WEST 9:12 PM WEST
Moon 7:18 PM WEST (9/12) 5:22 AM WEST (9/12)
Length of Visible Light 13h 25m
Length of Day
12h 33m
Waxing Gibbous, 97% of the Moon is Illuminated
Sep 12
Waxing Gibbous
Sep 14
Full
Sep 22
Last Quarter
Sep 28
New
Oct 5
First Quarter

Hourly Weather History & Observations

Time (WEST) Temp. Dew Point Humidity Pressure Visibility Wind Dir Wind Speed Gust Speed Precip Events Conditions
12:00 AM 77.0 °F 42.8 °F 29% 30.06 in - North 10.4 mph - N/A   Clear
12:30 AM 77.0 °F 42.8 °F 29% 30.06 in - NNW 10.4 mph - N/A   Clear
1:00 AM 77 °F 44 °F 20% 30.09 in 16 mi North 6.7 mph - -   Clear
1:00 AM 77.0 °F 42.8 °F 29% 30.06 in - NNW 8.1 mph - N/A   Clear
1:30 AM 77.0 °F 42.8 °F 29% 30.06 in - North 9.2 mph - N/A   Clear
2:00 AM 78 °F 45 °F 20% 30.10 in - NE 11.2 mph - -  
2:00 AM 77.0 °F 42.8 °F 29% 30.06 in - NNE 10.4 mph - N/A   Clear
3:00 AM 77.0 °F 44.6 °F 32% 30.06 in - NE 12.7 mph - N/A   Clear
3:30 AM 77.0 °F 46.4 °F 34% 30.09 in - ENE 15.0 mph - N/A   Clear
4:00 AM 75 °F 51 °F 32% 30.12 in 16 mi ENE 13.4 mph - -   Clear
4:00 AM 75.2 °F 48.2 °F 38% 30.09 in - ENE 11.5 mph - N/A   Clear
4:30 AM 73.4 °F 50.0 °F 44% 30.09 in - ENE 12.7 mph - N/A   Clear
5:00 AM 73 °F 50 °F 34% 30.13 in - ENE 11.2 mph - -  
5:00 AM 73.4 °F 50.0 °F 44% 30.09 in - ENE 12.7 mph - N/A   Clear
5:30 AM 73.4 °F 46.4 °F 38% 30.12 in - NE 15.0 mph - N/A   Clear
6:00 AM 72 °F 47 °F 31% 30.14 in - ENE 15.7 mph - -  
6:00 AM 71.6 °F 46.4 °F 41% 30.12 in - NE 13.8 mph - N/A   Clear
6:30 AM 71.6 °F 44.6 °F 38% 30.12 in - ENE 12.7 mph - N/A   Clear
7:00 AM 71 °F 46 °F 30% 30.15 in 16 mi ENE 11.2 mph - -   Clear
7:00 AM 71.6 °F 46.4 °F 41% 30.12 in - NE 13.8 mph - N/A   Clear
7:30 AM 69.8 °F 46.4 °F 43% 30.12 in - ENE 13.8 mph - N/A   Clear
8:00 AM 71 °F 46 °F 30% 30.17 in - ENE 11.2 mph - -  
8:00 AM 71.6 °F 44.6 °F 38% 30.12 in - ENE 10.4 mph 25.3 mph N/A   Clear
8:30 AM 71.6 °F 46.4 °F 41% 30.15 in - ENE 6.9 mph - N/A   Clear
9:00 AM 75.2 °F 44.6 °F 34% 30.12 in - NE 4.6 mph - N/A   Clear
9:30 AM 77.0 °F 44.6 °F 32% 30.15 in - ENE 8.1 mph - N/A   Clear
10:00 AM 78 °F 47 °F 23% 30.17 in 16 mi ENE 13.4 mph - -   Clear
10:00 AM 77.0 °F 44.6 °F 32% 30.15 in - ENE 11.5 mph - N/A   Clear
10:30 AM 77.0 °F 48.2 °F 36% 30.15 in - East 13.8 mph - N/A   Clear
11:00 AM 78.8 °F 51.8 °F 39% 30.15 in - East 16.1 mph - N/A   Clear
11:30 AM 77.0 °F 51.8 °F 41% 30.12 in - ESE 15.0 mph - N/A   Clear
12:00 PM 79 °F 54 °F 31% 30.16 in - ESE 17.9 mph - -  
12:00 PM 78.8 °F 53.6 °F 42% 30.12 in - ESE 15.0 mph - N/A   Clear
12:30 PM 77.0 °F 51.8 °F 41% 30.12 in 6.2 mi ESE 16.1 mph - N/A   Partly Cloudy
1:00 PM 78.8 °F 53.6 °F 42% 30.12 in 6.2 mi ESE 13.8 mph - N/A   Partly Cloudy
1:30 PM 77.0 °F 53.6 °F 44% 30.12 in 6.2 mi ESE 13.8 mph - N/A   Partly Cloudy
2:30 PM 77.0 °F 55.4 °F 47% 30.12 in 6.2 mi SE 13.8 mph - N/A   Partly Cloudy
3:00 PM 77.0 °F 53.6 °F 44% 30.12 in 6.2 mi ESE 13.8 mph - N/A   Partly Cloudy
3:30 PM 77.0 °F 55.4 °F 47% 30.12 in 6.2 mi ESE 12.7 mph - N/A   Partly Cloudy
4:00 PM 79 °F 56 °F 34% 30.14 in 12 mi ESE 11.2 mph - -   Scattered Clouds
4:00 PM 77.0 °F 55.4 °F 47% 30.12 in 6.2 mi ESE 9.2 mph - N/A   Partly Cloudy
4:30 PM 77.0 °F 55.4 °F 47% 30.12 in 6.2 mi ESE 9.2 mph - N/A   Partly Cloudy
5:00 PM 78 °F 56 °F 35% 30.14 in - ESE 6.7 mph - -  
5:00 PM 77.0 °F 55.4 °F 47% 30.12 in 6.2 mi ESE 5.8 mph - N/A   Partly Cloudy
5:30 PM 77.0 °F 55.4 °F 47% 30.12 in 6.2 mi ESE 5.8 mph - N/A   Partly Cloudy
6:00 PM 77 °F 56 °F 39% 30.15 in - SSE 4.5 mph - -  
6:00 PM 77.0 °F 55.4 °F 47% 30.12 in 6.2 mi ESE 6.9 mph - N/A   Partly Cloudy
6:30 PM 75.2 °F 55.4 °F 50% 30.12 in 6.2 mi SW 6.9 mph - N/A   Partly Cloudy
7:00 PM 74 °F 56 °F 43% 30.15 in 12 mi WSW 2.3 mph - -   Scattered Clouds
7:30 PM 73.4 °F 57.2 °F 57% 30.12 in 6.2 mi WSW 4.6 mph - N/A   Partly Cloudy
8:00 PM 71.6 °F 59.0 °F 64% 30.12 in 6.2 mi WSW 4.6 mph - N/A   Partly Cloudy
8:30 PM 71.6 °F 60.8 °F 69% 30.12 in - West 6.9 mph - N/A   Clear
9:00 PM 72 °F 59 °F 54% 30.16 in - NW 6.7 mph - -  
9:00 PM 71.6 °F 60.8 °F 69% 30.12 in - WNW 8.1 mph - N/A   Clear
10:00 PM 72 °F 58 °F 51% 30.17 in 16 mi NW 6.7 mph - -   Clear
10:00 PM 71.6 °F 59.0 °F 64% 30.12 in - NW 6.9 mph - N/A   Clear
10:30 PM 71.6 °F 57.2 °F 60% 30.12 in - NNW 3.5 mph - N/A   Clear
11:00 PM 69 °F 59 °F 61% 30.17 in - SSW 4.5 mph - -  
11:00 PM 69.8 °F 59.0 °F 68% 30.12 in - SW 3.5 mph - N/A   Clear
11:30 PM 68.0 °F 59.0 °F 73% 30.15 in - WSW 4.6 mph - N/A   Clear